Volver al catálogo

STARLINK-37501

ActivoComunicacionesSSO
NORAD 69296·PAYLOAD·🇺🇸 United States

Lanzado May 30, 2026 desde Vandenberg Space Force Base

Loading…

Próximos Pases (próximas 24 horas)

TLE

ActualizadoSource: CelesTrak SupGP

Época: Sep 15, 2026, 03:18 UTC

1 69296C 26119A   26258.13798611 -.00031395  00000+0 -97447-3 0  2584
2 69296  97.2825 282.8903 0001230  87.4709  57.8886 15.33458768    13

Sigue STARLINK-37501 en tiempo real con AllMySat

Download on the App Store